Flight Track Log - Related Links

Times and Time Zones

All times are in EDT time to prevent confusion due to time zone crossing. See the SWA385 flight status page for this flight to view local times or setup timezone preferences in your user account.

Time Position Orientation Groundspeed Altitude Reporting Facility
EDT Latitude Longitude Course Direction KTS MPH feet Rate Location/Type
Thu 05:27:40 PM 38.9333 -77.5500 256° West 206 237 2,200  Level Potomac TRACON
Thu 05:28:41 PM 38.9167 -77.6333 256° West 237 273 4,600 2,380 Climbing Potomac TRACON
Thu 05:29:41 PM 38.9000 -77.7167 256° West 271 312 7,000 2,520 Climbing Potomac TRACON
Thu 05:31:11 PM 38.8606 -77.8711 252° West 294 338 10,900 2,480 Climbing Washington Center
Thu 05:32:11 PM 38.8231 -77.9739 245° Southwest 320 368 13,200 2,430 Climbing Washington Center
Thu 05:33:12 PM 38.7894 -78.0978 251° West 351 404 15,800 1,934 Climbing Washington Center
Thu 05:34:12 PM 38.8200 -78.2294 287° West 358 412 17,100 1,388 Climbing Washington Center
Thu 05:35:13 PM 38.8525 -78.3586 288° West 374 430 18,600 1,835 Climbing Washington Center
Thu 05:36:13 PM 38.8825 -78.4958 286° West 385 443 20,800 2,100 Climbing Washington Center
Thu 05:37:13 PM 38.8561 -78.6358 256° West 391 450 22,800 2,085 Climbing Washington Center
Thu 05:38:11 PM 38.8628 -78.7828 273° West 399 459 24,900 1,966 Climbing Washington Center
Thu 05:39:12 PM 38.9219 -78.9108 301° West 408 470 26,700 1,785 Climbing Washington Center
Thu 05:40:12 PM 38.9828 -79.0444 300° West 418 481 28,500 1,650 Climbing Washington Center
Thu 05:41:12 PM 39.0433 -79.1808 300° West 431 496 30,000 1,686 Climbing Washington Center
Thu 05:42:13 PM 39.1158 -79.3344 301° West 453 521 31,900 1,714 Climbing Washington Center
Thu 05:43:11 PM 39.1739 -79.4767 298° West 453 521 33,400 1,576 Climbing Washington Center
Thu 05:44:11 PM 39.1706 -79.6344 268° West 430 495 35,000 1,108 Climbing Washington Center
Thu 05:46:26 PM 39.1258 -79.9783 261° West 445 512 37,000 612 Climbing Indianapolis Center
Thu 05:47:27 PM 39.1064 -80.1272 260° West 443 510 37,000  Level Indianapolis Center
Thu 05:48:29 PM 39.0850 -80.2828 260° West 442 509 37,000  Level Indianapolis Center
Thu 05:49:31 PM 39.0642 -80.4367 260° West 439 505 37,000  Level Indianapolis Center
Thu 05:50:34 PM 39.0392 -80.6228 260° West 440 506 37,000  Level Indianapolis Center
Thu 05:51:35 PM 39.0189 -80.7781 261° West 441 507 37,000  Level Indianapolis Center
Thu 05:52:37 PM 39.0589 -80.9225 290° West 438 504 37,000  Level Indianapolis Center
Thu 05:53:39 PM 39.1167 -81.0603 298° West 440 506 37,000 194 Level Indianapolis Center
Thu 05:54:41 PM 39.1733 -81.1981 298° West 440 506 37,400 484 Climbing Indianapolis Center
Thu 05:55:43 PM 39.2397 -81.3619 298° West 434 499 38,000 290 Climbing Indianapolis Center
Thu 05:56:45 PM 39.2956 -81.4989 298° West 433 498 38,000  Level Indianapolis Center
Thu 05:57:47 PM 39.3517 -81.6344 298° West 432 497 38,000  Level Indianapolis Center
Thu 05:58:49 PM 39.4067 -81.7725 297° West 433 498 38,000  Level Indianapolis Center
Thu 05:59:51 PM 39.4619 -81.9100 298° West 434 499 38,000  Level Indianapolis Center
Thu 06:00:52 PM 39.5178 -82.0486 298° West 434 499 38,000  Level Indianapolis Center
Thu 06:01:54 PM 39.5800 -82.2039 298° West 436 502 38,000  Level Indianapolis Center
Thu 06:02:56 PM 39.6342 -82.3436 297° West 432 497 38,000  Level Indianapolis Center
Thu 06:03:58 PM 39.6897 -82.4844 297° West 433 498 38,000  Level Indianapolis Center
Thu 06:05:00 PM 39.7456 -82.6250 297° West 435 501 38,000  Level Indianapolis Center
Thu 06:06:02 PM 39.8103 -82.7908 297° West 437 503 38,000  Level Indianapolis Center
Thu 06:07:04 PM 39.8653 -82.9339 297° West 439 505 38,000  Level Indianapolis Center
Thu 06:08:06 PM 39.9214 -83.0767 297° West 441 507 38,000  Level Indianapolis Center
Thu 06:09:08 PM 39.9775 -83.2192 297° West 441 507 38,000  Level Indianapolis Center
Thu 06:10:10 PM 40.0317 -83.3625 296° West 444 511 38,000  Level Indianapolis Center
Thu 06:11:12 PM 40.0961 -83.5289 297° West 442 509 38,000 -339 Level Indianapolis Center
Thu 06:12:14 PM 40.1500 -83.6722 296° West 441 507 37,300 -919 Descending Indianapolis Center
Thu 06:13:16 PM 40.2033 -83.8144 296° West 436 502 36,100 -629 Descending Indianapolis Center
Thu 06:14:18 PM 40.2550 -83.9553 296° West 428 493 36,000 -194 Descending Indianapolis Center
Thu 06:15:20 PM 40.3097 -84.0956 297° West 430 495 35,700 -629 Descending Indianapolis Center
Thu 06:16:22 PM 40.3597 -84.2383 295° West 429 494 34,700 -968 Descending Indianapolis Center
Thu 06:17:24 PM 40.4117 -84.3825 295° West 434 499 33,700 -1,065 Descending Indianapolis Center
Thu 06:18:26 PM 40.4719 -84.5469 296° West 427 491 32,500 -1,065 Descending Indianapolis Center
Thu 06:19:28 PM 40.5528 -84.6589 314° West 423 487 31,500 -1,016 Descending Indianapolis Center
Thu 06:20:30 PM 40.6367 -84.7644 316° Northwest 416 479 30,400 -919 Descending Indianapolis Center
Thu 06:21:32 PM 40.7217 -84.8678 317° Northwest 414 476 29,600 -826 Descending Indianapolis Center
Thu 06:22:19 PM 40.7794 -84.9408 316° Northwest 408 470 28,900 -936 Descending Chicago Center
Thu 06:23:21 PM 40.8553 -85.0478 313° West 400 460 27,900 -1,008 Descending Chicago Center
Thu 06:24:24 PM 40.9478 -85.1831 312° West 411 473 26,800 -1,008 Descending Chicago Center
Thu 06:25:26 PM 41.0244 -85.2925 313° West 407 468 25,800 -1,016 Descending Chicago Center
Thu 06:26:28 PM 41.1006 -85.4044 312° West 408 470 24,700 -1,016 Descending Chicago Center
Thu 06:27:30 PM 41.1775 -85.5158 313° West 408 470 23,700 -968 Descending Chicago Center
Thu 06:28:32 PM 41.2506 -85.6253 312° West 398 458 22,700 -968 Descending Chicago Center
Thu 06:29:34 PM 41.3231 -85.7308 312° West 386 444 21,700 -1,306 Descending Chicago Center
Thu 06:30:36 PM 41.3819 -85.8467 304° West 378 435 20,000 -1,984 Descending Chicago Center
Thu 06:31:38 PM 41.4208 -86.0000 289° West 364 419 17,600 -2,177 Descending Chicago Center
Thu 06:32:40 PM 41.4533 -86.1244 289° West 357 411 15,500 -2,016 Descending Chicago Center
Thu 06:33:43 PM 41.4842 -86.2447 289° West 346 398 13,400 -1,968 Descending Chicago Center
Thu 06:34:45 PM 41.5139 -86.3642 288° West 341 392 11,400 -1,452 Descending Chicago Center
Thu 06:35:47 PM 41.5214 -86.4842 275° West 334 384 10,400 -677 Descending Chicago Center
Thu 06:36:49 PM 41.5217 -86.5950 270° West 308 354 10,000 -194 Descending Chicago Center
Thu 06:37:51 PM 41.5192 -86.7028 268° West 253 291 10,000  Level Chicago Center
Thu 06:38:53 PM 41.5203 -86.7853 271° West 231 266 10,000  Level Chicago Center
Thu 06:39:55 PM 41.5197 -86.8697 270° West 229 264 10,000  Level Chicago Center
Thu 06:40:57 PM 41.5331 -86.9467 283° West 227 261 10,000  Level Chicago Center
Thu 06:42:00 PM 41.5925 -86.9050 28° Northeast 255 293 10,000 -528 Level Chicago Center
Thu 06:43:02 PM 41.5411 -86.8608 147° Southeast 254 292 8,900 -1,016 Descending Chicago Center
Thu 06:44:04 PM 41.5278 -86.9481 258° West 282 325 7,900 -1,065 Descending Chicago Center
Thu 06:45:06 PM 41.5567 -87.0419 292° West 280 322 6,700 -919 Descending Chicago Center
Thu 06:46:08 PM 41.5872 -87.1358 294° West 278 320 6,000 -968 Descending Chicago Center
Thu 06:47:10 PM 41.6231 -87.2450 294° West 272 313 4,700 -968 Descending Chicago Center
Thu 06:48:12 PM 41.6525 -87.3361 293° West 271 312 4,000 -435 Descending Chicago Center
Thu 06:49:14 PM 41.6814 -87.4231 294° West 263 303 3,800 -532 Descending Chicago Center
Thu 06:50:16 PM 41.7083 -87.5086 293° West 258 297 2,900 -629 Descending Chicago Center
Thu 06:51:18 PM 41.7489 -87.5753 309° West 243 280 2,500 -432 Descending Chicago Center
Thu 06:52:21 PM 41.7903 -87.6406 310° West 215 247 2,000 -336 Descending Chicago Center
Thu 06:53:23 PM 41.8169 -87.6842 309° West 184 212 1,800 -387 Descending Chicago Center
Thu 06:54:25 PM 41.8086 -87.7236 254° West 148 170 1,200 -387 Descending Chicago Center
Thu 06:55:27 PM 41.7867 -87.7539 226° Southwest 142 163 1,000 -194 Descending Chicago Center

Login

Don't have an account? Register now (free) for customized features, flight alerts, and more!